Regional Weather Roundup
Issued by NWS

Home | Current Version | Previous Version | Text Only | Print | Product List | Glossary Off
Versions: 1 2 3 4 5 6 7 8 9 10 11 12 13 14 15 16 17 18 19 20 21 22 23 24 25 26 27 28 29 30 31 32 33 34 35 36 37 38 39 40 41 42 43 44 45 46 47 48 49 50

000
ASUS45 KCYS 251910
RWRWY

WYOMING REGIONAL WEATHER ROUNDUP
NATIONAL WEATHER SERVICE CHEYENNE WY
1200 PM MST TUE NOV 25 2014

NOTE:  "FAIR" INDICATES FEW OR NO CLOUDS BELOW 12,000 FEET
WITH NO SIGNIFICANT WEATHER AND/OR OBSTRUCTIONS TO VISIBILITY.

WYZ001-252000-
YELLOWSTONE NATIONAL PARK

CITY           SKY/WX    TMP DP  RH WIND       PRES   REMARKS
LK YELLOWSTONE   N/A     27  24  89 VRB5      29.99F WCI  22
W YELLOWSTONE  NOT AVBL

$$
WYZ002>013-054>058-071-098>099-252000-
NORTHERN WYOMING

CITY           SKY/WX    TMP DP  RH WIND       PRES   REMARKS
JACKSON        CLOUDY    30  30 100 S8        30.05F WCI  23
CODY           CLOUDY    41  27  56 N7        29.86S
GREYBULL       LGT SNOW  29  28  96 E3        29.91F VSB 3/4
WORLAND        CLOUDY    30  26  85 CALM      29.89F
SHERIDAN       LGT SNOW  33  31  92 W15       29.87R VSB 1   WCI  23
BUFFALO        HVY SNOW  33  29  85 N16G29    29.85R VSB 1/4 WCI  23
GILLETTE       LGT SNOW  33  31  92 W16       29.81S VSB 3/4 WCI  23
HULETT           N/A    N/A N/A N/A MISG        N/A
NEWCASTLE      LGT SNOW  28  28 100 CALM      29.82F

$$
WYZ014>020-022>026-101>103-252000-
CENTRAL WYOMING

CITY           SKY/WX    TMP DP  RH WIND       PRES   REMARKS
BIG PINEY      CLOUDY   N/A N/A N/A E7        30.09F
PINEDALE       LGT SNOW  30  28  93 N7        30.09F WCI  23
DUBOIS         FLURRIES  32  25  74 NW18G29   29.91S WCI  20
LANDER         PTSUNNY   40  19  43 SE7       29.86F
RIVERTON       CLOUDY    33  19  56 S7        29.89F WCI  27
CASPER         CLOUDY    39  19  44 SW16      29.86F WCI  30
DOUGLAS        CLOUDY   N/A N/A N/A W15       29.84F

$$
WYZ021-027>030-104>119-252000-
SOUTHERN WYOMING

CITY           SKY/WX    TMP DP  RH WIND       PRES   REMARKS
EVANSTON       PTSUNNY   33  25  72 SW30G37   30.24S WCI  19
KEMMERER       LGT SNOW  32  28  86 W39G45    30.12F VSB 3/4 WCI  16
FORT BRIDGER   MOCLDY    36  27  69 W32G44    30.23R WCI  23
ROCK SPRINGS   MOSUNNY   36  23  59 W32G40    30.09F WCI  23
DIXON          CLOUDY    29  15  57 SW21G28   30.18F WCI  16
RAWLINS        CLOUDY    32  19  58 W37G52    29.96F WCI  16
SARATOGA       MOCLDY    32  21  64 W44G56    30.00F WCI  15
LARAMIE        PTSUNNY   33  16  49 W30G43    29.91F WCI  19
CHEYENNE       CLOUDY    37  18  46 W32G46    29.86F WCI  24
TORRINGTON     CLOUDY    46  19  34 W24G45    29.81F
PINE BLUFFS    FAIR      43  18  36 W32G39    29.86F

$$



USA.gov is the U.S. government's official web portal to all federal, state and local government web resources and services.